Retour au catalogue

KUIPER-00598

ActifCommunicationsLEO
NORAD 69768·PAYLOAD·🇺🇸 United States

Lancé Jul 2, 2026 depuis Cape Canaveral Space Force Station

Loading…

Prochains Passages (prochaines 24 heures)

TLE

FraisSource: CelesTrak SupGP

Époque: Sep 14, 2026, 17:22 UTC

1 69768C 26151F   26257.72372685  .00000127  00000+0  16642-4 0  2572
2 69768  51.8984 252.2422 0000718 113.0776 175.5906 14.79906630    12

Suivez KUIPER-00598 en temps réel avec AllMySat

Download on the App Store